Weather Roundup
Issued by NWS Corpus Christi, TX

Home | Current Version | Previous Version | Text Only | Print | Product List | Glossary On
Versions: 1 2 3 4 5 6 7 8 9 10 11 12 13 14 15 16 17 18 19 20 21 22 23 24 25 26 27 28 29 30 31 32 33 34 35 36 37 38 39 40 41 42 43 44 45 46 47 48 49 50
000
ASUS44 KCRP 220010
HRRCRP

SOUTH TEXAS REGIONAL WEATHER ROUNDUP
NATIONAL WEATHER SERVICE CORPUS CHRISTI TX
700 PM CDT THU AUG 21 2014


TXZ229>244-220100-
...CORPUS CHRISTI AREA OBSERVATIONS...

CITY           SKY/WX    TMP DP  RH WIND       PRES   REMARKS
CORPUS CHRISTI MOSUNNY   89  76  65 SE22G32   29.98R HX 100
NAS CORPUS CHR MOSUNNY   87  79  76 SE23G31   29.99S HX 101
ROCKPORT       SUNNY     87  78  74 SE20G28   30.00R HX 100
KINGSVILLE NAS MOSUNNY   91  77  63 SE26G37   29.96S HX 104
ALICE          SUNNY     91  76  61 SE24G32   29.95R HX 103
FALFURRIAS     SUNNY    103  77  43 SE18G24   29.94S HX 119
$$

...VICTORIA AREA OBSERVATIONS...

CITY           SKY/WX    TMP DP  RH WIND       PRES   REMARKS
VICTORIA       SUNNY     92  74  55 S18       30.01R HX 101
BEEVILLE       FAIR      91  74  57 SE24      29.98R HX 100
PLEASANTON     SUNNY     99  63  30 SE16      29.93S HX 100
SAN ANTONIO    MOSUNNY   99  60  27 S17       29.95S HX  99
$$

...LAREDO AREA OBSERVATIONS...

CITY           SKY/WX    TMP DP  RH WIND       PRES   REMARKS
LAREDO         SUNNY    102  60  25 SE20      29.92S HX 102
COTULLA        SUNNY    101  59  24 SE18G26   29.90S HX 101
DEL RIO        SUNNY     99  64  31 SE13      29.89F HX 101
MCALLEN        MOSUNNY   93  71  48 SE21G29   29.96R HX 100
HEBBRONVILLE   SUNNY     98  61  30 SE18G25   29.95S HX  98
$$

...OTHER TEXAS OBSERVATIONS...

CITY           SKY/WX    TMP DP  RH WIND       PRES   REMARKS
BROWNSVILLE    MOSUNNY   89  77  67 SE18G26   30.00R HX 101
HOUSTON        MOSUNNY   91  71  51 S13       30.03S HX  97
COL. STATION   SUNNY     94  67  41 SE17      29.99R HX  97
AUSTIN         MOSUNNY   97  66  36 SE21G26   29.95R HX 100
WACO           SUNNY     97  62  31 S13       29.94F HX  98
FORT WORTH     MOSUNNY   97  62  31 S17       29.93S HX  98
WICHITA FALLS  MOSUNNY   97  67  37 S25       29.87F HX 101
LUBBOCK        MOSUNNY   94  59  31 S18       29.96S HX  93
EL PASO        MOSUNNY   91  49  23 S10       29.98F
$$

...MARINE OBSERVATIONS...

STATION/POSITION TIME  SKY/WX   TEMP    WIND        PRES    VSBY  WAVE   SWELL
                                AIR SEA DIR/SP/G                  HT/PER HT/PER
                 (UTC)          (F)     (DEG/KT/KT) (MB)    (MI)  (FT/S) (FT/S)
PORT ARANSAS     0000            84 86  130/ 17/ 19 1016.7R
BUOY 90 E PORT A 0000            85 85  140/ 10/ 14 1018.2F         3/ 6   3/ 6
BUOY 45 SE BAFFI 0000            85 85  150/ 16/ 19 1015.8R         3/ 6   2/11
BUOY 200 E PT IS 0000            86 86  120/  8/ 12 1018.0F         3/ 6   2/ 6
BUOY 15 E GALVES NOT AVBL
$$



USA.gov is the U.S. government's official web portal to all federal, state and local government web resources and services.